Location: Azul
(36.7830°S, 59.8500°W)
Time: 02:09:49
(UTC-03:00)

HuskySat-1 - Pass Details

Date: 26 October 2021
Orbit: 443 x 456 km, 51.6° (Epoch: 04 December)

Event Time Altitude Azimuth Distance (km) Brightness Sun altitude
Exits shadow 04:51:08 15° 252° (WSW) 1,306 ? -13.7°
Maximum altitude 04:53:39 36° 313° (NW) 742 ? -13.3°
Drops below altitude 10° 04:56:57 10° 20° (NNE) 1,580 ? -12.7°
Sets 04:59:09 0° 29° (NNE) 2,441 ? -12.3°
